Flag for Venezuela Weather past 2 weeks in Maracay, Venezuela

Now
79 °F

Clear.


Feels Like: 82 °F
Forecast: 72 / 91 °F
Wind: 2 mph from East

Location: Maracay-B. A. Sucre


UV Index: 7 (High)

Visibility: 10 mi


Pressure: 29.95 "Hg

Humidity: 84%

Dew point: 73 °F

Location of MaracayLocation

Historic Weather in Maracay

°F

Maracay temperature yesterday

Maximum temperature yesterday: 93 °F (at 4:30 PM)
Minimum temperature yesterday: 73 °F (at 5:30 AM)
Average temperature yesterday: 86 °F

Past Weeks' High & Low Weather Summary

 TemperatureHumidityPressure
High97 °F (Apr 7, 3:30 PM)100% (Apr 7, 5:30 AM)30.33 "Hg (Apr 7, 5:30 AM)
Low70 °F (Apr 12, 5:30 AM)46% (Apr 2, 1:30 PM)29.80 "Hg (Apr 14, 4:30 PM)
Average84 °F71%29.97 "Hg
* Reported Apr 1 9:30 PM — Apr 16 9:30 PM, Maracay, Weather by CustomWeather, © 2014

Note: Actual official high and low records may vary slightly from our data, if they occured in-between our weather recording intervals... More about our weather records

Advertising

Historic Weather Conditions — Data for Previous 24 hours

 ConditionsComfort  
Time TempWeatherWind HumidityBarometerVisibility
9:30 PM
Apr 16
79 °FClear.2 mph84%29.95 "Hg10 mi
8:30 PM79 °FClear.2 mph84%29.95 "Hg10 mi
6:30 PM82 °FMostly cloudy.3 mph79%29.89 "HgN/A
5:30 PM84 °FMore clouds than sun.8 mph70%29.89 "HgN/A
4:30 PM86 °FOvercast.6 mph75%29.89 "HgN/A
2:30 PM91 °FOvercast.8 mph59%29.92 "HgN/A
1:30 PM90 °FOvercast.9 mph71%29.95 "HgN/A
12:30 PM90 °FOvercast.7 mph71%29.98 "HgN/A
11:30 AM90 °FOvercast.6 mph63%29.98 "HgN/A
10:30 AM86 °FWarm.10 mph79%30.01 "HgN/A
9:30 AM84 °FPartly sunny.5 mph84%30.01 "HgN/A
8:30 AM81 °FOvercast.5 mph94%30.01 "HgN/A
7:30 AM79 °FPartly sunny.3 mph94%29.98 "HgN/A
6:30 AM77 °FPartly sunny.5 mph100%29.95 "HgN/A
5:30 AM75 °FPartly sunny.3 mph100%29.92 "HgN/A
4:30 AM77 °FPassing clouds.5 mph100%29.92 "HgN/A
Weather by CustomWeather, © 2014

See weather overview